カタログに戻る

STARLINK-32556

運用中通信VLEO
NORAD 61858·PAYLOAD·🇺🇸 United States

打ち上げ Nov 7, 2024 から Cape Canaveral Space Force Station

Loading…

次のパス (今後24時間)

TLE

最新Source: CelesTrak SupGP

元期: Sep 15, 2026, 03:23 UTC

1 61858C 24202P   26258.14145833 -.00038884  00000+0 -14075-2 0  2589
2 61858  43.0006 247.9956 0001178 261.4052  62.4036 15.27617860    17

AllMySatでSTARLINK-32556をリアルタイム追跡

Download on the App Store